TimeEDT,TemperatureF,Dew PointF,Humidity,Sea Level PressureIn,VisibilityMPH,Wind Direction,Wind SpeedMPH,Gust SpeedMPH,PrecipitationIn,Events,Conditions,WindDirDegrees,DateUTC
12:54 AM,62.1,60.1,93,29.88,10.0,Calm,Calm,-,0.00,,Overcast,0,2013-04-11 04:54:00
1:54 AM,62.1,60.1,93,29.87,10.0,SSW,4.6,-,N/A,,Mostly Cloudy,210,2013-04-11 05:54:00
2:54 AM,62.1,59.0,90,29.81,10.0,South,5.8,-,N/A,,Overcast,180,2013-04-11 06:54:00
3:54 AM,62.1,59.0,90,29.83,10.0,West,8.1,-,N/A,,Overcast,260,2013-04-11 07:54:00
4:54 AM,62.1,59.0,90,29.86,10.0,West,8.1,-,N/A,,Mostly Cloudy,260,2013-04-11 08:54:00
5:54 AM,60.1,57.0,90,29.88,10.0,WSW,3.5,-,N/A,,Mostly Cloudy,250,2013-04-11 09:54:00
6:54 AM,63.0,57.9,84,29.90,10.0,West,5.8,-,N/A,,Mostly Cloudy,270,2013-04-11 10:54:00
7:54 AM,62.1,57.9,86,29.91,10.0,Calm,Calm,-,N/A,,Mostly Cloudy,0,2013-04-11 11:54:00
8:54 AM,64.0,57.9,80,29.89,10.0,SSE,3.5,-,N/A,,Mostly Cloudy,160,2013-04-11 12:54:00
9:54 AM,69.1,59.0,70,29.89,10.0,Calm,Calm,-,N/A,,Mostly Cloudy,0,2013-04-11 13:54:00
10:54 AM,72.0,59.0,64,29.91,10.0,NNE,4.6,-,N/A,,Mostly Cloudy,30,2013-04-11 14:54:00
11:54 AM,73.9,59.0,59,29.91,10.0,East,5.8,-,N/A,,Mostly Cloudy,80,2013-04-11 15:54:00
12:54 PM,70.0,60.1,71,29.90,10.0,ENE,12.7,21.9,N/A,,Mostly Cloudy,60,2013-04-11 16:54:00
1:04 PM,69.8,60.8,73,29.90,7.0,ENE,16.1,23.0,N/A,,Mostly Cloudy,60,2013-04-11 17:04:00
1:29 PM,69.8,59.0,68,29.91,6.0,ENE,13.8,-,N/A,,Haze,60,2013-04-11 17:29:00
1:44 PM,66.2,57.2,73,29.91,6.0,ENE,17.3,21.9,N/A,,Haze,70,2013-04-11 17:44:00
1:54 PM,66.0,57.0,73,29.91,5.0,ENE,12.7,-,N/A,,Haze,60,2013-04-11 17:54:00
2:21 PM,66.2,57.2,73,29.90,7.0,East,16.1,-,N/A,,Overcast,80,2013-04-11 18:21:00
2:49 PM,64.4,55.4,73,29.90,7.0,East,16.1,-,N/A,,Overcast,80,2013-04-11 18:49:00
2:54 PM,64.0,55.0,73,29.89,7.0,East,16.1,-,N/A,,Overcast,80,2013-04-11 18:54:00
3:35 PM,64.4,53.6,68,29.89,7.0,East,17.3,21.9,N/A,,Overcast,80,2013-04-11 19:35:00
3:54 PM,64.0,54.0,70,29.89,7.0,ENE,15.0,-,N/A,,Overcast,70,2013-04-11 19:54:00
4:18 PM,62.6,53.6,72,29.91,7.0,East,15.0,-,N/A,,Overcast,90,2013-04-11 20:18:00
4:41 PM,60.8,51.8,72,29.91,10.0,ENE,13.8,-,N/A,,Overcast,70,2013-04-11 20:41:00
4:54 PM,61.0,52.0,72,29.91,10.0,East,12.7,-,N/A,,Overcast,80,2013-04-11 20:54:00
5:54 PM,57.0,48.0,72,29.93,10.0,ESE,20.7,27.6,N/A,,Overcast,110,2013-04-11 21:54:00
6:19 PM,57.2,48.2,72,29.93,10.0,East,18.4,24.2,N/A,,Overcast,90,2013-04-11 22:19:00
6:54 PM,55.0,46.0,72,29.94,10.0,East,17.3,-,N/A,,Overcast,100,2013-04-11 22:54:00
7:54 PM,54.0,45.0,72,29.93,10.0,East,19.6,26.5,N/A,,Overcast,90,2013-04-11 23:54:00
8:51 PM,51.8,44.6,76,29.94,10.0,ENE,13.8,-,N/A,,Overcast,70,2013-04-12 00:51:00
8:54 PM,52.0,45.0,77,29.94,10.0,East,15.0,21.9,N/A,,Overcast,80,2013-04-12 00:54:00
9:44 PM,51.8,46.4,82,29.95,10.0,East,12.7,-,N/A,,Overcast,80,2013-04-12 01:44:00
9:54 PM,51.1,45.0,80,29.95,10.0,ENE,11.5,-,N/A,,Overcast,70,2013-04-12 01:54:00
10:54 PM,50.0,45.0,83,29.94,10.0,ENE,13.8,23.0,N/A,,Overcast,70,2013-04-12 02:54:00
11:27 PM,50.0,46.4,87,29.95,10.0,East,17.3,-,N/A,,Overcast,80,2013-04-12 03:27:00
11:54 PM,50.0,46.0,86,29.95,10.0,ENE,17.3,23.0,N/A,,Overcast,70,2013-04-12 03:54:00